QPF
0.00 0.00 0.00 0.00 0.00 0.00 0.00 0.00 0.00 0.00 0.00 0.00 0.00 0.00 0.00 0.00 0.00 0.00 0.00 0.00 0.00 0.00 0.00 0.00 0.01 0.01 0.01 0.02 0.02 0.03 0.03 0.03 0.04 0.04 0.04 0.04 0.05 0.05
0.00 0.00 0.00 0.00 0.00 0.00 0.00 0.00 0.00 0.00 0.00 0.00 0.00 0.00 0.00 0.00 0.00 0.00 0.00 0.00 0.00 0.00 0.00 0.00 0.01 0.01 0.01 0.01 0.02 0.02 0.03 0.03 0.04 0.04 0.05 0.06 0.07 0.07
0.00 0.00 0.00 0.00 0.00 0.00 0.00 0.00 0.00 0.00 0.00 0.00 0.00 0.00 0.00 0.00 0.00 0.00 0.00 0.00 0.00 0.00 0.00 0.00 0.00 0.00 0.01 0.01 0.01 0.02 0.02 0.03 0.03 0.04 0.04 0.05 0.06 0.06
0.00 0.00 0.00 0.00 0.00 0.00 0.00 0.00 0.00 0.00 0.00 0.00 0.00 0.00 0.00 0.00 0.00 0.00 0.00 0.00 0.00 0.00 0.00 0.00 0.00 0.00 0.00 0.01 0.01 0.01 0.02 0.02 0.03 0.03 0.03 0.04 0.04 0.05
0.00 0.00 0.00 0.00 0.00 0.00 0.00 0.00 0.00 0.00 0.00 0.00 0.00 0.00 0.00 0.00 0.00 0.00 0.00 0.00 0.00 0.00 0.00 0.00 0.00 0.00 0.00 0.00 0.01 0.01 0.01 0.01 0.01 0.02 0.02 0.02 0.03 0.03
0.00 0.00 0.00 0.00 0.00 0.00 0.00 0.00 0.00 0.00 0.00 0.00 0.00 0.00 0.00 0.00 0.00 0.00 0.00 0.00 0.00 0.00 0.00 0.00 0.00 0.00 0.00 0.00 0.00 0.00 0.00 0.00 0.01 0.01 0.01 0.02 0.02 0.02
0.00 0.00 0.00 0.00 0.00 0.00 0.00 0.00 0.00 0.00 0.01 0.01 0.01 0.01 0.01 0.00 0.00 0.00 0.00 0.00 0.00 0.00 0.00 0.00 0.00 0.00 0.00 0.00 0.00 0.00 0.00 0.00 0.01 0.01 0.01 0.02 0.02 0.03
0.00 0.00 0.00 0.00 0.00 0.00 0.00 0.00 0.00 0.01 0.01 0.02 0.02 0.02 0.01 0.00 0.00 0.00 0.00 0.01 0.01 0.00 0.00 0.00 0.00 0.00 0.00 0.00 0.00 0.00 0.00 0.00 0.00 0.01 0.01 0.02 0.02 0.03
0.00 0.00 0.00 0.00 0.00 0.00 0.00 0.00 0.00 0.01 0.02 0.02 0.02 0.01 0.00 0.00 0.00 0.01 0.01 0.02 0.01 0.00 0.00 0.00 0.00 0.00 0.00 0.00 0.00 0.00 0.00 0.00 0.00 0.01 0.01 0.01 0.02 0.03
0.00 0.00 0.00 0.00 0.00 0.00 0.00 0.01 0.01 0.01 0.01 0.01 0.00 0.00 0.00 0.00 0.01 0.02 0.02 0.01 0.00 0.00 0.00 0.00 0.00 0.00 0.00 0.00 0.00 0.00 0.00 0.00 0.00 0.00 0.01 0.01 0.02 0.03
0.00 0.00 0.00 0.00 0.00 0.00 0.01 0.01 0.01 0.00 0.00 0.00 0.00 0.00 0.00 0.00 0.00 0.00 0.01 0.02 0.01 0.00 0.00 0.00 0.00 0.00 0.00 0.00 0.00 0.00 0.00 0.00 0.00 0.00 0.01 0.01 0.02 0.03
0.00 0.00 0.00 0.00 0.00 0.01 0.01 0.01 0.01 0.00 0.00 0.00 0.00 0.00 0.00 0.00 0.00 0.00 0.01 0.04 0.04 0.02 0.00 0.00 0.01 0.01 0.02 0.00 0.00 0.00 0.00 0.00 0.00 0.00 0.00 0.01 0.01 0.03
0.00 0.00 0.00 0.00 0.01 0.01 0.01 0.01 0.00 0.00 0.00 0.00 0.00 0.00 0.00 0.00 0.00 0.00 0.00 0.03 0.06 0.03 0.00 0.03 0.05 0.02 0.04 0.01 0.00 0.00 0.00 0.00 0.00 0.00 0.00 0.00 0.01 0.04
0.00 0.00 0.00 0.00 0.01 0.01 0.00 0.00 0.00 0.00 0.00 0.00 0.00 0.00 0.00 0.00 0.00 0.00 0.00 0.01 0.02 0.03 0.01 0.04 0.09 0.05 0.05 0.03 0.01 0.00 0.00 0.00 0.00 0.00 0.00 0.01 0.01 0.02
0.00 0.00 0.00 0.00 0.00 0.00 0.00 0.00 0.00 0.00 0.00 0.00 0.00 0.00 0.00 0.00 0.00 0.00 0.00 0.00 0.00 0.00 0.00 0.02 0.05 0.06 0.07 0.06 0.03 0.01 0.00 0.00 0.00 0.00 0.01 0.02 0.02 0.02
0.00 0.00 0.00 0.00 0.00 0.00 0.00 0.00 0.00 0.00 0.00 0.00 0.00 0.00 0.00 0.00 0.00 0.00 0.01 0.01 0.01 0.00 0.00 0.00 0.02 0.07 0.08 0.05 0.04 0.02 0.01 0.01 0.01 0.01 0.02 0.02 0.02 0.03
0.00 0.00 0.00 0.00 0.00 0.00 0.00 0.00 0.00 0.00 0.00 0.00 0.00 0.01 0.00 0.00 0.00 0.00 0.01 0.01 0.02 0.01 0.00 0.00 0.00 0.02 0.04 0.06 0.05 0.01 0.01 0.01 0.01 0.01 0.04 0.04 0.02 0.02
0.00 0.00 0.00 0.00 0.00 0.00 0.00 0.00 0.00 0.00 0.00 0.01 0.01 0.01 0.01 0.01 0.01 0.00 0.01 0.01 0.02 0.01 0.00 0.00 0.01 0.01 0.01 0.00 0.01 0.01 0.02 0.01 0.01 0.01 0.03 0.08 0.06 0.03
0.00 0.00 0.00 0.00 0.00 0.00 0.00 0.00 0.00 0.00 0.01 0.01 0.02 0.02 0.02 0.01 0.01 0.01 0.01 0.01 0.01 0.01 0.00 0.01 0.02 0.06 0.05 0.02 0.00 0.00 0.04 0.05 0.03 0.02 0.02 0.06 0.09 0.06
0.00 0.00 0.00 0.00 0.00 0.00 0.00 0.01 0.01 0.01 0.01 0.01 0.01 0.02 0.02 0.02 0.02 0.01 0.01 0.02 0.02 0.01 0.01 0.00 0.02 0.06 0.11 0.08 0.05 0.01 0.01 0.06 0.10 0.08 0.04 0.03 0.03 0.04
0.00 0.00 0.00 0.00 0.00 0.01 0.01 0.01 0.01 0.01 0.02 0.02 0.02 0.02 0.03 0.03 0.02 0.01 0.01 0.01 0.02 0.02 0.02 0.01 0.00 0.02 0.05 0.05 0.03 0.01 0.00 0.02 0.08 0.15 0.15 0.11 0.07 0.04
0.00 0.00 0.00 0.00 0.01 0.01 0.01 0.01 0.02 0.02 0.02 0.02 0.02 0.03 0.03 0.03 0.03 0.02 0.02 0.02 0.02 0.02 0.02 0.01 0.00 0.00 0.01 0.04 0.03 0.01 0.01 0.00 0.01 0.03 0.10 0.17 0.22 0.22
0.00 0.00 0.00 0.01 0.01 0.02 0.02 0.02 0.02 0.02 0.03 0.03 0.03 0.03 0.03 0.03 0.03 0.03 0.02 0.02 0.02 0.02 0.02 0.01 0.00 0.00 0.00 0.01 0.02 0.02 0.02 0.01 0.01 0.01 0.02 0.04 0.10 0.15
MSLP
1019.86 1020.13 1020.39 1020.63 1020.81 1020.90 1020.88 1020.74 1020.50 1020.16 1019.77 1019.34 1018.89 1018.46 1018.05 1017.65 1017.26 1016.87 1016.46 1016.04 1015.59 1015.12 1014.62 1014.10 1013.58 1013.06 1012.54 1012.04 1011.56 1011.11 1010.68 1010.29 1009.92 1009.59 1009.27 1008.96 1008.66 1008.35
1019.77 1019.98 1020.21 1020.41 1020.57 1020.67 1020.67 1020.57 1020.37 1020.08 1019.73 1019.32 1018.89 1018.44 1017.98 1017.52 1017.06 1016.58 1016.09 1015.58 1015.05 1014.51 1013.97 1013.42 1012.87 1012.33 1011.80 1011.28 1010.79 1010.32 1009.87 1009.45 1009.06 1008.70 1008.37 1008.05 1007.74 1007.44
1019.61 1019.76 1019.92 1020.08 1020.22 1020.31 1020.33 1020.27 1020.12 1019.89 1019.58 1019.22 1018.81 1018.36 1017.88 1017.37 1016.84 1016.28 1015.71 1015.12 1014.52 1013.91 1013.31 1012.72 1012.14 1011.57 1011.02 1010.48 1009.96 1009.45 1008.97 1008.52 1008.09 1007.70 1007.33 1007.00 1006.68 1006.38
1019.43 1019.50 1019.60 1019.72 1019.82 1019.90 1019.93 1019.90 1019.79 1019.60 1019.35 1019.02 1018.63 1018.19 1017.69 1017.15 1016.56 1015.94 1015.30 1014.64 1013.97 1013.31 1012.65 1012.02 1011.40 1010.80 1010.22 1009.64 1009.08 1008.53 1008.00 1007.49 1007.02 1006.59 1006.19 1005.84 1005.52 1005.23
1019.26 1019.28 1019.32 1019.38 1019.45 1019.50 1019.52 1019.50 1019.41 1019.25 1019.02 1018.72 1018.35 1017.90 1017.39 1016.82 1016.20 1015.53 1014.82 1014.11 1013.38 1012.67 1011.98 1011.30 1010.65 1010.01 1009.39 1008.77 1008.16 1007.56 1006.98 1006.42 1005.89 1005.42 1004.99 1004.63 1004.30 1004.02
1019.15 1019.12 1019.11 1019.12 1019.14 1019.15 1019.14 1019.09 1018.99 1018.83 1018.61 1018.31 1017.94 1017.49 1016.97 1016.37 1015.72 1015.01 1014.28 1013.52 1012.76 1012.01 1011.28 1010.58 1009.89 1009.21 1008.55 1007.89 1007.22 1006.57 1005.93 1005.32 1004.75 1004.24 1003.78 1003.40 1003.08 1002.81
1019.11 1019.03 1018.98 1018.94 1018.90 1018.86 1018.79 1018.70 1018.56 1018.36 1018.11 1017.80 1017.41 1016.95 1016.41 1015.80 1015.13 1014.41 1013.66 1012.88 1012.10 1011.33 1010.58 1009.85 1009.13 1008.42 1007.71 1007.01 1006.30 1005.59 1004.90 1004.24 1003.63 1003.08 1002.60 1002.21 1001.88 1001.61
1019.10 1018.99 1018.90 1018.80 1018.70 1018.59 1018.45 1018.29 1018.08 1017.83 1017.53 1017.18 1016.76 1016.28 1015.74 1015.13 1014.46 1013.74 1012.99 1012.22 1011.44 1010.66 1009.90 1009.15 1008.41 1007.67 1006.92 1006.17 1005.41 1004.66 1003.92 1003.22 1002.57 1001.99 1001.48 1001.06 1000.72 1000.44
1019.10 1018.96 1018.82 1018.67 1018.50 1018.31 1018.09 1017.84 1017.55 1017.23 1016.87 1016.48 1016.03 1015.54 1014.99 1014.39 1013.74 1013.04 1012.32 1011.56 1010.80 1010.04 1009.27 1008.51 1007.75 1006.98 1006.19 1005.40 1004.59 1003.80 1003.02 1002.27 1001.59 1000.97 1000.43 999.98 999.61 999.29
1019.05 1018.88 1018.70 1018.49 1018.25 1017.98 1017.67 1017.33 1016.96 1016.57 1016.16 1015.72 1015.26 1014.76 1014.22 1013.64 1013.02 1012.37 1011.68 1010.96 1010.23 1009.48 1008.72 1007.95 1007.17 1006.37 1005.55 1004.72 1003.87 1003.03 1002.21 1001.42 1000.69 1000.03 999.45 998.94 998.52 998.14
1018.91 1018.72 1018.49 1018.23 1017.92 1017.57 1017.18 1016.77 1016.33 1015.88 1015.43 1014.96 1014.49 1014.00 1013.48 1012.94 1012.36 1011.75 1011.11 1010.43 1009.73 1009.01 1008.26 1007.48 1006.68 1005.85 1005.00 1004.12 1003.23 1002.34 1001.47 1000.64 999.86 999.15 998.51 997.93 997.43 996.97
1018.69 1018.46 1018.19 1017.88 1017.51 1017.10 1016.66 1016.19 1015.70 1015.21 1014.73 1014.25 1013.78 1013.30 1012.82 1012.31 1011.78 1011.21 1010.61 1009.98 1009.30 1008.59 1007.85 1007.06 1006.24 1005.38 1004.49 1003.58 1002.64 1001.71 1000.79 999.91 999.07 998.30 997.58 996.93 996.32 995.76
1018.40 1018.14 1017.84 1017.48 1017.07 1016.62 1016.14 1015.63 1015.12 1014.62 1014.12 1013.65 1013.19 1012.73 1012.27 1011.79 1011.29 1010.76 1010.18 1009.57 1008.91 1008.20 1007.45 1006.65 1005.81 1004.92 1003.99 1003.03 1002.06 1001.08 1000.11 999.18 998.28 997.44 996.64 995.90 995.20 994.53
1018.10 1017.81 1017.47 1017.08 1016.65 1016.18 1015.68 1015.16 1014.65 1014.14 1013.65 1013.18 1012.73 1012.28 1011.83 1011.37 1010.88 1010.35 1009.78 1009.17 1008.50 1007.78 1007.01 1006.19 1005.31 1004.39 1003.43 1002.43 1001.42 1000.40 999.39 998.41 997.46 996.55 995.68 994.85 994.05 993.28
1017.82 1017.51 1017.15 1016.75 1016.31 1015.83 1015.33 1014.82 1014.31 1013.82 1013.33 1012.87 1012.41 1011.96 1011.50 1011.03 1010.52 1009.97 1009.38 1008.73 1008.04 1007.29 1006.48 1005.62 1004.71 1003.76 1002.76 1001.73 1000.69 999.64 998.59 997.57 996.57 995.61 994.68 993.78 992.91 992.05
1017.62 1017.28 1016.91 1016.51 1016.07 1015.60 1015.11 1014.62 1014.12 1013.64 1013.16 1012.68 1012.21 1011.74 1011.24 1010.72 1010.17 1009.57 1008.93 1008.23 1007.48 1006.68 1005.83 1004.93 1003.99 1003.00 1001.97 1000.92 999.85 998.78 997.71 996.66 995.63 994.63 993.65 992.70 991.77 990.87
1017.50 1017.15 1016.78 1016.37 1015.94 1015.49 1015.02 1014.53 1014.05 1013.56 1013.07 1012.58 1012.08 1011.56 1011.01 1010.42 1009.80 1009.13 1008.41 1007.64 1006.83 1005.97 1005.07 1004.13 1003.15 1002.13 1001.08 1000.02 998.93 997.85 996.76 995.69 994.64 993.62 992.61 991.64 990.68 989.75
1017.45 1017.10 1016.72 1016.32 1015.89 1015.44 1014.98 1014.51 1014.02 1013.53 1013.02 1012.49 1011.94 1011.36 1010.74 1010.07 1009.37 1008.61 1007.82 1006.98 1006.09 1005.18 1004.23 1003.25 1002.24 1001.20 1000.14 999.07 997.98 996.88 995.80 994.72 993.66 992.62 991.60 990.60 989.64 988.70
1017.45 1017.08 1016.69 1016.28 1015.85 1015.41 1014.94 1014.46 1013.96 1013.45 1012.91 1012.34 1011.73 1011.08 1010.39 1009.65 1008.87 1008.03 1007.16 1006.26 1005.32 1004.36 1003.37 1002.36 1001.33 1000.28 999.22 998.14 997.05 995.96 994.87 993.79 992.72 991.66 990.63 989.63 988.66 987.72
1017.43 1017.05 1016.64 1016.22 1015.78 1015.31 1014.83 1014.33 1013.81 1013.26 1012.68 1012.06 1011.40 1010.70 1009.94 1009.14 1008.29 1007.40 1006.48 1005.52 1004.55 1003.55 1002.55 1001.52 1000.49 999.44 998.38 997.31 996.22 995.13 994.04 992.95 991.86 990.80 989.75 988.73 987.75 986.82
1017.37 1016.96 1016.53 1016.08 1015.61 1015.11 1014.60 1014.06 1013.50 1012.91 1012.29 1011.63 1010.93 1010.18 1009.38 1008.54 1007.66 1006.74 1005.79 1004.82 1003.83 1002.83 1001.82 1000.80 999.77 998.73 997.68 996.61 995.53 994.44 993.34 992.24 991.14 990.04 988.97 987.93 986.92 985.98
1017.26 1016.81 1016.34 1015.85 1015.33 1014.79 1014.23 1013.65 1013.04 1012.41 1011.74 1011.05 1010.31 1009.54 1008.72 1007.87 1006.98 1006.07 1005.13 1004.16 1003.19 1002.20 1001.21 1000.21 999.20 998.17 997.14 996.08 995.01 993.92 992.81 991.69 990.56 989.43 988.32 987.24 986.20 985.22
1017.09 1016.60 1016.08 1015.53 1014.96 1014.36 1013.74 1013.10 1012.44 1011.76 1011.06 1010.34 1009.59 1008.81 1008.00 1007.17 1006.30 1005.42 1004.51 1003.59 1002.65 1001.70 1000.74 999.77 998.78 997.78 996.77 995.73 994.66 993.57 992.45 991.31 990.15 988.99 987.83 986.70 985.61 984.59
Thickness
5519 5514 5509 5504 5498 5492 5485 5477 5469 5467 5472 5470 5464 5461 5454 5449 5443 5438 5433 5428 5424 5419 5415 5410 5405 5400 5395 5390 5385 5381 5378 5375 5374 5373 5373 5374 5377 5380
5509 5503 5497 5492 5486 5479 5472 5465 5457 5451 5451 5452 5444 5439 5434 5428 5423 5418 5413 5407 5402 5395 5389 5384 5378 5372 5367 5362 5358 5356 5354 5354 5354 5355 5356 5358 5360 5363
5498 5493 5487 5481 5474 5466 5459 5451 5444 5436 5436 5438 5427 5421 5414 5408 5404 5397 5391 5386 5379 5371 5365 5358 5353 5348 5344 5342 5340 5340 5341 5342 5344 5345 5347 5349 5350 5353
5486 5481 5475 5469 5461 5453 5445 5438 5430 5422 5417 5418 5413 5404 5396 5389 5385 5379 5372 5363 5355 5348 5342 5336 5332 5329 5328 5328 5329 5331 5333 5335 5337 5339 5340 5342 5343 5345
5475 5469 5463 5455 5447 5439 5431 5423 5415 5408 5400 5396 5394 5386 5378 5369 5364 5359 5350 5341 5331 5325 5322 5319 5318 5318 5319 5320 5322 5324 5327 5329 5332 5333 5335 5336 5337 5339
5464 5458 5451 5443 5435 5426 5418 5409 5400 5392 5384 5378 5374 5368 5359 5350 5341 5336 5333 5322 5314 5309 5308 5308 5309 5310 5311 5313 5315 5318 5320 5323 5326 5329 5331 5332 5333 5334
5451 5445 5438 5431 5423 5415 5407 5397 5387 5378 5369 5362 5357 5350 5341 5331 5321 5314 5311 5309 5304 5298 5302 5302 5302 5304 5305 5307 5309 5312 5316 5319 5322 5325 5327 5329 5330 5332
5438 5432 5425 5418 5410 5403 5394 5384 5373 5362 5353 5344 5338 5329 5321 5311 5304 5298 5295 5296 5300 5295 5295 5299 5296 5300 5302 5303 5306 5309 5313 5316 5318 5321 5323 5326 5328 5330
5425 5418 5413 5405 5397 5387 5380 5370 5357 5343 5333 5325 5319 5310 5303 5296 5291 5289 5286 5286 5290 5289 5287 5296 5296 5297 5298 5299 5301 5305 5308 5311 5315 5318 5321 5323 5326 5328
5412 5405 5398 5390 5382 5374 5367 5357 5343 5329 5318 5309 5302 5297 5291 5287 5283 5283 5283 5284 5286 5282 5278 5284 5291 5293 5295 5294 5295 5300 5304 5308 5312 5315 5318 5321 5324 5327
5398 5391 5383 5376 5369 5362 5353 5341 5330 5317 5305 5296 5291 5286 5283 5280 5278 5277 5275 5273 5278 5280 5273 5273 5281 5285 5290 5291 5293 5296 5300 5303 5306 5310 5314 5319 5322 5326
5386 5377 5369 5361 5354 5344 5333 5323 5315 5306 5297 5290 5283 5279 5277 5274 5271 5268 5264 5262 5265 5270 5269 5266 5267 5266 5282 5290 5289 5290 5294 5299 5304 5308 5313 5317 5320 5323
5372 5364 5354 5346 5336 5326 5316 5307 5299 5295 5289 5283 5278 5276 5273 5270 5267 5262 5258 5253 5254 5257 5259 5255 5257 5256 5258 5276 5287 5289 5292 5298 5303 5307 5311 5315 5319 5321
5358 5348 5339 5330 5320 5311 5302 5294 5290 5285 5280 5275 5272 5270 5268 5266 5263 5259 5255 5251 5248 5249 5251 5248 5250 5253 5257 5266 5278 5290 5293 5297 5302 5308 5312 5316 5319 5322
5342 5332 5323 5314 5305 5296 5289 5285 5281 5275 5271 5268 5266 5265 5262 5260 5258 5256 5254 5252 5250 5249 5249 5248 5248 5251 5254 5262 5273 5283 5292 5300 5305 5309 5312 5315 5319 5322
5325 5317 5308 5299 5291 5285 5281 5275 5271 5268 5266 5264 5261 5259 5257 5254 5252 5250 5250 5249 5251 5254 5251 5249 5250 5251 5257 5264 5271 5282 5291 5297 5306 5309 5313 5319 5321 5323
5316 5305 5295 5286 5280 5275 5272 5269 5266 5264 5261 5258 5255 5253 5251 5249 5247 5245 5244 5244 5244 5249 5254 5255 5254 5256 5260 5265 5275 5286 5294 5301 5306 5310 5314 5320 5325 5325
5301 5290 5281 5275 5271 5269 5267 5265 5263 5260 5256 5253 5250 5247 5245 5243 5243 5241 5239 5239 5241 5245 5249 5253 5257 5263 5270 5278 5283 5289 5296 5302 5307 5310 5312 5318 5326 5328
5283 5275 5270 5267 5265 5264 5262 5260 5258 5256 5252 5248 5245 5243 5241 5239 5237 5238 5238 5238 5241 5244 5248 5252 5256 5261 5271 5283 5291 5293 5295 5302 5308 5313 5316 5317 5323 5327
5271 5266 5264 5263 5262 5260 5259 5257 5255 5253 5249 5245 5242 5239 5237 5235 5235 5235 5236 5237 5240 5245 5250 5255 5258 5262 5268 5278 5290 5299 5301 5303 5308 5314 5318 5321 5323 5327
5263 5261 5261 5260 5260 5258 5257 5255 5252 5250 5247 5243 5240 5238 5236 5234 5234 5234 5235 5239 5242 5246 5251 5258 5264 5268 5273 5281 5291 5302 5307 5308 5308 5311 5316 5321 5326 5328
5259 5259 5260 5260 5259 5257 5256 5253 5251 5249 5246 5243 5240 5238 5236 5234 5234 5235 5237 5240 5244 5248 5254 5262 5269 5274 5278 5284 5292 5301 5309 5313 5314 5315 5317 5317 5320 5327
5257 5258 5259 5260 5259 5258 5256 5254 5252 5250 5247 5244 5241 5240 5238 5237 5237 5238 5240 5244 5248 5253 5259 5266 5273 5278 5282 5287 5293 5300 5306 5311 5315 5319 5322 5324 5324 5325